Regional Weather Roundup
Issued by NWS Little Rock, AR

Home | Current Version | Previous Version | Text Only | Print | Product List | Glossary Off
Versions: 1 2 3 4 5 6 7 8 9 10 11 12 13 14 15 16 17 18 19 20 21 22 23 24 25 26 27 28 29 30 31 32

000
ASUS44 KLZK 201705
RWRLZK

WEATHER ROUNDUP FOR ARKANSAS
NATIONAL WEATHER SERVICE LITTLE ROCK AR
1100 AM CST TUE FEB 20 2018

NOTE: "FAIR" INDICATES FEW OR NO CLOUDS BELOW 12,000 FEET WITH NO
SIGNIFICANT WEATHER AND/OR OBSTRUCTIONS TO VISIBILITY.

ARZ001-003-010-029-201800-
NORTHWEST ARKANSAS

CITY           SKY/WX    TMP DP  RH WIND       PRES   REMARKS
FAYETTEVILLE   PTSUNNY   68  64  87 S12G30    29.92R
FORT SMITH     CLOUDY    73  58  59 S8        29.92R
HARRISON       PTSUNNY   67  61  81 S13G25    29.95S
BENTONVILLE    CLOUDY    69  60  73 S20G36    29.94R
ROGERS         CLOUDY    70  60  70 S25G44    29.92R
SILOAM SPGS    CLOUDY    68  61  78 SW20G25   29.93R
SPRINGDALE     CLOUDY    70  63  78 S24G37    29.94R
$$

ARZ004-005-016-201800-
NORTH CENTRAL ARKANSAS

CITY           SKY/WX    TMP DP  RH WIND       PRES   REMARKS
BATESVILLE     CLOUDY    73  63  70 S13G22    30.04F
FLIPPIN        CLOUDY    71  60  68 S12G22    29.96S
MTN HOME       CLOUDY    68  62  81 SW18G26   29.96F
$$

ARZ040-041-201800-
WEST CENTRAL ARKANSAS

CITY           SKY/WX    TMP DP  RH WIND       PRES   REMARKS
MENA           PTSUNNY   72  70  94 S8G21     30.00F
MOUNT IDA      CLOUDY    71  64  78 S12G21    29.99F
$$

ARZ009-017-025-026-028-201800-
NORTHEAST ARKANSAS

CITY           SKY/WX    TMP DP  RH WIND       PRES   REMARKS
JONESBORO      CLOUDY    69  66  90 S20       30.09S
WALNUT RIDGE   PTSUNNY   71  65  81 S24G31    30.05S
BLYTHEVILLE    CLOUDY    72  63  73 S20G28    30.12S
$$

ARZ022-023-033-042-044-201800-
CENTRAL ARKANSAS

CITY           SKY/WX    TMP DP  RH WIND       PRES   REMARKS
LITTLE ROCK    CLOUDY    73  64  73 S18G25    30.07F
N LITTLE ROCK    N/A     70  65  82 S12G20    30.03F
JACKSONVILLE   CLOUDY    73  64  73 S9G21     30.06F
SEARCY         CLOUDY    73  68  84 S20G28    30.06F
HOT SPRINGS    CLOUDY    73  64  73 S13G18    30.04F
RUSSELLVILLE   PTSUNNY   69  63  81 S8        30.00R
CLINTON        FAIR      72  63  73 S13G24    30.01F
$$

ARZ036-201800-
EAST ARKANSAS

CITY           SKY/WX    TMP DP  RH WIND       PRES   REMARKS
WEST MEMPHIS   CLOUDY    70  65  84 S22G30    30.13S
$$

ARZ050-053-066-070-073-201800-
SOUTHWEST ARKANSAS

CITY           SKY/WX    TMP DP  RH WIND       PRES   REMARKS
ARKADELPHIA    CLOUDY    72  65  78 S8        30.05F
CAMDEN         CLOUDY    77  63  61 S8G16     30.06F
TEXARKANA      CLOUDY    74  64  71 S16G25    30.02F
EL DORADO      CLOUDY    76  66  71 SE17G31   30.06F
DE QUEEN       CLOUDY    72  65  78 S10       29.99S
$$

ARZ056-057-069-201800-
SOUTHEAST ARKANSAS

CITY           SKY/WX    TMP DP  RH WIND       PRES   REMARKS
PINE BLUFF     PTSUNNY   74  65  73 S20       30.08F
STUTTGART      PTSUNNY   73  66  78 S21       30.09F
MONTICELLO     PTSUNNY   75  64  68 S13G18    30.09F

$$






USA.gov is the U.S. government's official web portal to all federal, state and local government web resources and services.